Regional Weather Roundup
Issued by NWS Jackson, KY

Home | Current Version | Previous Version | Text Only | Print | Product List | Glossary On
Versions: 1 2 3 4 5 6 7 8 9 10 11 12 13 14 15 16 17 18 19 20 21 22 23 24 25 26 27
000
ASUS43 KJKL 260010
RWRJKL

EAST KENTUCKY HOURLY WEATHER ROUNDUP
NATIONAL WEATHER SERVICE JACKSON KY
800 PM EDT WED MAY 25 2016

NOTE: "FAIR" INDICATES FEW OR NO CLOUDS BELOW 12,000 FEET WITH
NO SIGNIFICANT WEATHER AND/OR OBSTRUCTIONS TO VISIBILITY.

* THESE REPORTS ARE NOT UNDER NWS QUALITY CONTROL AND MAY NOT
  REPORT WEATHER SUCH AS PRECIPITATION AND FOG.

KYZ079-080-083-085-087-088-110-112-115-119-120-260100
...EASTERN KENTUCKY...

CITY           SKY/WX    TMP DP  RH WIND       PRES   REMARKS
JACKSON        CLOUDY    73  60  63 CALM      30.16R
6HR MIN TEMP:  73; 6HR MAX TEMP:  83;

LONDON         CLOUDY    75  63  66 S5        30.15S
6HR MIN TEMP:  70; 6HR MAX TEMP:  83; 6HR PCP:  0.14;

SOMERSET*      MOCLDY    73  61  64 W5        30.15S
MONTICELLO*    CLOUDY    75  65  70 W5        30.17R
6HR MIN TEMP:  75; 6HR MAX TEMP:  82; 6HR PCP: TRACE;

WILLIAMSBURG*  CLOUDY    73  63  68 S3        30.16S
MIDDLESBORO*   CLOUDY    77  60  54 CALM      30.16F
6HR MIN TEMP:  77; 6HR MAX TEMP:  82;

HARLAN APT*    CLOUDY    75  54  46 CALM      30.18S
BLACK MTN*       N/A     64  54  68 S5          N/A
PIKE CO APT*   MOCLDY    77  59  54 CALM      30.15R
BIG SANDY APT* MOCLDY    78  63  60 SW6       30.14R
6HR MIN TEMP:  78; 6HR MAX TEMP:  84;

MOREHEAD APT*  MOCLDY    70  63  78 S7        30.13F
ASHLAND*       MOCLDY    79  64  61 W5        30.08R
$$

KYZ035-036-041-042-044-050-067-078-099-260100
...CENTRAL KENTUCKY...

CITY           SKY/WX    TMP DP  RH WIND       PRES   REMARKS
MT STERLING*   MOCLDY    72  64  78 SW10      30.13S
FLEMING/MASON* CLOUDY   N/A N/A N/A S10       30.10S
DANVILLE*      CLOUDY    75  61  60 SW9       30.13R
RICHMOND*      CLOUDY    75  63  64 S6        30.12S
LEXINGTON      PTCLDY    75  61  61 S8        30.10S
6HR MIN TEMP:  75; 6HR MAX TEMP:  83;

FRANKFORT      CLOUDY    77  62  59 S12       30.07S
6HR MIN TEMP:  77; 6HR MAX TEMP:  83;

LOUISVILLE     CLOUDY    77  61  57 S15       30.05S
6HR MIN TEMP:  77; 6HR MAX TEMP:  84; 6HR PCP: TRACE;

LEBANON*         N/A     73  64  73 S12       30.11S
GLASGOW*       DRIZZLE   66  66 100 SE5       30.12F
BOWLING GREEN  LGT RAIN  68  65  90 SE15      30.08F
6HR MIN TEMP:  68; 6HR MAX TEMP:  80; 6HR PCP:  1.32;

$$

KYZ091>093-OHZ055-061-077-WVZ005-015-034-035-042-260100
...SOUTHERN OHIO/WEST VIRGINIA...

CITY           SKY/WX    TMP DP  RH WIND       PRES   REMARKS
COVINGTON      MOCLDY    78  63  59 S9        30.05R
COLUMBUS       MOCLDY    77  58  51 S9        30.05F
DAYTON         MOCLDY    78  61  55 S10       30.04R
WILMINGTON     PTCLDY    76  63  64 S14       30.05S
HUNTINGTON     MOCLDY    78  61  55 S3        30.10F
CHARLESTON     MOCLDY    78  64  61 CALM      30.11F
PINEVILLE*       N/A     71  59  66 MISG      30.21F
BECKLEY          N/A     74  53  48 SW3       30.21S
BLUEFIELD        N/A     72  53  51 W5        30.23S
LOGAN CO APT*    N/A     79  59  50 CALM      30.15S
$$

VAZ002-007-008-TNZ017-027-036-066-071-260100
...SOUTHWEST VIRGINIA/EAST TENNESSEE...

CITY           SKY/WX    TMP DP  RH WIND       PRES   REMARKS
WISE*          MOCLDY    72  50  46 SW6       30.24R
JONESVILLE*      N/A     75  57  53 CALM      30.20S
ABINGDON*        N/A     78  59  52 CALM      30.20S
BRISTOL        MOCLDY    77  59  53 W7        30.17S
SEVIERVILLE*   CLOUDY    79  61  53 CALM      30.15S
KNOXVILLE      MOCLDY    81  58  45 W5        30.15R
OAK RIDGE      CLOUDY    80  60  50 SW3       30.16S
CROSSVILLE     CLOUDY    75  60  59 CALM      30.20R
NASHVILLE      CLOUDY    74  65  73 VRB3      30.14R
$$

...KEY TO REMARKS...
VSB - VISIBILITY IN MILES
WCI - WIND CHILL INDEX
HX  - HEAT INDEX

$$




USA.gov is the U.S. government's official web portal to all federal, state and local government web resources and services.